DW2893 Weather Reports


Display with metric or nautical units.
time (UTC)temp
F
wind
direction
speed
MPH
gust
MPH
rain 1hr
in
rain 24hr
in
rain mn
in
humidity
%
barometer
mb
20260906171307 95 9 5.0 10.0 0.00 0.00 0.00 52 1012.9
20260906170806 95 119 2.0 12.0 0.00 0.00 0.00 53 1012.9
20260906170307 94 119 7.0 12.0 0.00 0.00 0.00 53 1012.9
20260906165807 94 94 6.0 14.0 0.00 0.00 0.00 53 1012.9
20260906165307 94 53 9.0 14.0 0.00 0.00 0.00 53 1012.9
20260906164807 94 111 7.0 12.0 0.00 0.00 0.00 54 1012.9
20260906163307 94 110 6.0 12.0 0.00 0.00 0.00 56 1013.0
20260906162807 93 149 7.0 13.0 0.00 0.00 0.00 55 1013.0
20260906161807 93 138 3.0 8.0 0.00 0.00 0.00 59 1012.9
20260906160807 92 117 4.0 12.0 0.00 0.00 0.00 59 1012.9
20260906155307 91 111 4.0 9.0 0.00 0.00 0.00 62 1012.8
20260906154306 90 81 5.0 10.0 0.00 0.00 0.00 63 1012.8
20260906153807 90 83 6.0 10.0 0.00 0.00 0.00 64 1012.8
20260906153306 90 84 4.0 8.0 0.00 0.00 0.00 66 1012.8
20260906152807 90 74 5.0 8.0 0.00 0.00 0.00 66 1012.5
20260906151306 88 106 2.0 7.0 0.00 0.00 0.00 70 1012.5
20260906150307 87 134 3.0 7.0 0.00 0.00 0.00 73 1012.5
20260906145807 86 96 2.0 6.0 0.00 0.00 0.00 74 1012.6
20260906144307 85 80 3.0 5.0 0.00 0.00 0.00 76 1012.8
20260906143307 84 118 3.0 6.0 0.00 0.00 0.00 77 1012.8
20260906142806 84 118 3.0 6.0 0.00 0.00 0.00 79 1012.8
20260906142307 83 116 2.0 3.0 0.00 0.00 0.00 79 1012.8
20260906141806 83 116 2.0 3.0 0.00 0.00 0.00 80 1012.7
20260906141306 83 116 1.0 5.0 0.00 0.00 0.00 81 1012.7
20260906140806 82 116 3.0 3.0 0.00 0.00 0.00 82 1012.7
20260906140306 82 116 2.0 5.0 0.00 0.00 0.00 83 1012.5
20260906135807 81 117 4.0 5.0 0.00 0.00 0.00 83 1012.5
20260906133807 80 96 3.0 5.0 0.00 0.00 0.00 86 1012.6
20260906133306 80 92 3.0 5.0 0.00 0.00 0.00 86 1012.6
20260906132806 80 90 3.0 5.0 0.00 0.00 0.00 87 1012.6
20260906132307 79 88 3.0 5.0 0.00 0.00 0.00 87 1012.7
20260906131807 79 155 2.0 5.0 0.00 0.00 0.00 88 1012.7
20260906124806 78 157 2.0 5.0 0.00 0.00 0.00 89 1012.4
20260906124306 78 156 2.0 3.0 0.00 0.00 0.00 89 1012.4
20260906123806 78 157 0.0 1.0 0.00 0.00 0.00 89 1012.4
20260906123306 78 157 0.0 1.0 0.00 0.00 0.00 89 1012.2
20260906122806 78 157 1.0 2.0 0.00 0.00 0.00 89 1012.3
20260906122306 78 149 1.0 3.0 0.00 0.00 0.00 88 1012.1
20260906120806 78 157 0.0 1.0 0.00 0.00 0.00 87 1012.0
20260906120306 78 157 0.0 1.0 0.00 0.00 0.00 87 1012.0
20260906115806 78 157 0.0 1.0 0.00 0.00 0.00 87 1011.9
20260906112307 78 157 2.0 5.0 0.00 0.00 0.00 86 1011.7
20260906111806 78 156 2.0 5.0 0.00 0.00 0.00 86 1011.7
20260906110305 79 161 1.0 3.0 0.00 0.00 0.00 86 1011.6
20260906105806 79 161 3.0 5.0 0.00 0.00 0.00 86 1011.5
20260906105306 79 161 2.0 3.0 0.00 0.00 0.00 86 1011.5
20260906103806 79 162 2.0 3.0 0.00 0.00 0.00 86 1011.5
20260906103306 79 162 2.0 3.0 0.00 0.00 0.00 86 1011.4
20260906102805 79 162 0.0 2.0 0.00 0.00 0.00 85 1011.4
20260906101806 79 162 0.0 2.0 0.00 0.00 0.00 85 1011.4
20260906100806 79 162 1.0 2.0 0.00 0.00 0.00 85 1011.4
20260906100306 79 162 1.0 3.0 0.00 0.00 0.00 85 1011.4
20260906095805 79 162 1.0 2.0 0.00 0.00 0.00 84 1011.4
20260906095306 79 162 0.0 0.0 0.00 0.00 0.00 83 1011.0
20260906094806 79 162 0.0 0.0 0.00 0.00 0.00 83 1011.0
20260906092306 80 162 0.0 1.0 0.00 0.00 0.00 82 1010.9
20260906091806 80 162 0.0 1.0 0.00 0.00 0.00 82 1010.9
20260906091306 80 162 1.0 3.0 0.00 0.00 0.00 82 1010.8
20260906090806 80 162 1.0 3.0 0.00 0.00 0.00 82 1010.7
20260906083805 81 138 5.0 7.0 0.00 0.00 0.00 81 1010.7
20260906083305 81 183 3.0 7.0 0.00 0.00 0.00 80 1010.7
20260906082805 81 162 5.0 7.0 0.00 0.00 0.00 80 1010.7
20260906082306 81 134 3.0 6.0 0.00 0.00 0.00 80 1010.7
20260906081805 81 152 4.0 6.0 0.00 0.00 0.00 80 1010.7
20260906080305 81 155 3.0 5.0 0.00 0.00 0.00 79 1010.9
20260906075805 81 154 3.0 6.0 0.00 0.00 0.00 79 1010.7
20260906075306 82 154 5.0 7.0 0.00 0.00 0.00 79 1010.7
20260906074806 82 154 3.0 5.0 0.00 0.00 0.00 78 1010.7
20260906073805 82 156 5.0 8.0 0.00 0.00 0.00 78 1010.7
20260906071305 82 200 3.0 6.0 0.00 0.00 0.00 76 1011.1
20260906070305 83 185 3.0 6.0 0.00 0.00 0.00 75 1011.1
20260906065805 83 109 5.0 10.0 0.00 0.00 0.00 75 1011.0
20260906065306 83 156 6.0 9.0 0.00 0.00 0.00 75 1011.0
20260906064805 83 150 4.0 8.0 0.00 0.00 0.00 74 1011.1
20260906064305 83 168 4.0 8.0 0.00 0.00 0.00 74 1011.2
20260906063305 83 170 5.0 8.0 0.00 0.00 0.00 73 1011.2
20260906060805 84 153 5.0 9.0 0.00 0.00 0.00 71 1011.2
20260906055804 84 157 5.0 6.0 0.00 0.00 0.00 70 1011.2
20260906054805 84 164 4.0 7.0 0.00 0.00 0.00 70 1011.2
20260906053805 84 148 5.0 8.0 0.00 0.00 0.00 70 1011.2
20260906052805 84 175 5.0 7.0 0.00 0.00 0.00 70 1010.9
20260906052306 84 178 3.0 6.0 0.00 0.00 0.00 70 1010.9
20260906051304 85 172 2.0 5.0 0.00 0.00 0.00 69 1011.1
20260906050836 85 173 2.0 5.0 0.00 0.00 0.00 69 1011.1
20260906045804 85 173 3.0 6.0 0.00 0.00 0.00 69 1011.1
20260906045306 85 173 3.0 6.0 0.00 0.00 0.00 69 1011.1
20260906043304 85 145 5.0 9.0 0.00 0.00 0.00 68 1011.1
20260906042805 85 113 6.0 9.0 0.00 0.00 0.00 68 1011.0
20260906042306 85 127 3.0 7.0 0.00 0.00 0.00 68 1011.0
20260906041805 86 153 3.0 8.0 0.00 0.00 0.00 68 1011.0
20260906040804 86 137 6.0 9.0 0.00 0.00 0.00 67 1011.0
20260906035804 86 154 6.0 9.0 0.00 0.00 0.00 67 1011.1
20260906031804 87 134 5.0 10.0 0.00 0.00 0.00 65 1011.1
20260906030805 87 149 7.0 13.0 0.00 0.00 0.00 64 1011.0
20260906025805 87 121 8.0 18.0 0.00 0.00 0.00 64 1011.1
20260906024304 87 78 6.0 15.0 0.00 0.00 0.00 63 1010.6
20260906023304 88 80 6.0 12.0 0.00 0.00 0.00 62 1010.6
20260906022804 88 67 7.0 15.0 0.00 0.00 0.00 62 1010.7
20260906020804 88 122 7.0 12.0 0.00 0.00 0.00 61 1010.5
20260906015804 88 48 7.0 12.0 0.00 0.00 0.00 61 1010.2
20260906014805 89 128 7.0 12.0 0.00 0.00 0.00 60 1010.2
20260906013804 89 131 4.0 14.0 0.00 0.00 0.00 59 1010.2
20260906013304 90 11 10.0 18.0 0.00 0.00 0.00 58 1010.0
20260906012306 91 128 9.0 14.0 0.00 0.00 0.00 55 1009.6
20260906011804 92 57 9.0 14.0 0.00 0.00 0.00 54 1009.6
20260906010804 93 95 6.0 15.0 0.00 0.00 0.00 53 1009.5
20260906005306 94 17 8.0 13.0 0.00 0.00 0.00 50 1009.3
20260906004804 95 39 10.0 18.0 0.00 0.00 0.00 49 1009.1
20260906004305 95 136 4.0 8.0 0.00 0.00 0.00 47 1009.1
20260906002804 96 40 5.0 10.0 0.00 0.00 0.00 45 1009.1
20260906000808 96 140 7.0 10.0 0.00 0.00 0.00 44 1009.1
20260906000308 97 60 6.0 12.0 0.00 0.00 0.00 44 1009.0
20260905234808 97 94 6.0 12.0 0.00 0.00 0.00 44 1009.0
20260905234308 98 97 6.0 10.0 0.00 0.00 0.00 43 1009.0
20260905233808 98 71 5.0 12.0 0.00 0.00 0.00 43 1008.9
20260905233308 98 138 6.0 12.0 0.00 0.00 0.00 43 1009.0
20260905232808 98 133 5.0 9.0 0.00 0.00 0.00 43 1009.1
20260905232308 98 82 5.0 9.0 0.00 0.00 0.00 42 1009.1
20260905231807 98 96 5.0 10.0 0.00 0.00 0.00 42 1009.0
20260905231308 99 119 3.0 8.0 0.00 0.00 0.00 42 1009.0
20260905230308 99 124 6.0 9.0 0.00 0.00 0.00 41 1009.0
20260905225308 99 118 7.0 12.0 0.00 0.00 0.00 41 1009.0
20260905223308 99 108 2.0 8.0 0.00 0.00 0.00 41 1009.0
20260905222808 100 161 5.0 12.0 0.00 0.00 0.00 40 1009.0
20260905221307 100 127 4.0 9.0 0.00 0.00 0.00 40 1009.0
20260905215308 100 187 3.0 5.0 0.00 0.00 0.00 40 1009.3
20260905213307 99 243 1.0 8.0 0.00 0.00 0.00 39 1009.6
20260905212307 99 171 2.0 8.0 0.00 0.00 0.00 40 1009.6
20260905210807 99 153 4.0 9.0 0.00 0.00 0.00 40 1009.9
20260905210307 99 176 3.0 7.0 0.00 0.00 0.00 41 1009.9
20260905205308 99 127 3.0 6.0 0.00 0.00 0.00 40 1008.2
20260905203807 98 147 5.0 9.0 0.00 0.00 0.00 42 1008.5